User: anonymous   Login
Location: *
(48.4333°N, 5.0333°W)
Time: 02:44:43
(UTC+00:00)
Language:

BREEZE-M DEB (TANK) - Orbit

View from above orbital plane
View from above orbital plane
View from above satellite
View from above satellite

Ground track
Ground track

The orbit data is extracted from the following two-line orbital elements,

1 27821U 03024B   20192.51963706 +.00003023 +00000-0 +27946-3 0  9999
2 27821 049.6075 339.8296 4910482 170.9236 203.1421 05.81597653345272
Epoch (UTC): 10 July 2020 12:28:16
Eccentricity: 0.4910482
inclination: 49.6075°
perigee height: 269 km
apogee height: 13097 km
right ascension of ascending node: 339.8296°
argument of perigee: 170.9236°
revolutions per day: 5.81597653
mean anomaly at epoch: 203.1421°
orbit number at epoch: 34527

The dashed part of the orbit path shows where the satellite is in the earth's shadow,  

DLR